Change the Weather History Date:

Monday, April 8, 2013

  Actual Average Record
Temperature  
Mean Temperature 68 °F -  
Max Temperature 75 °F 78 °F 80 °F (1998)
Min Temperature 61 °F 61 °F 50 °F (2006)
Cooling Degree Days 3    
Growing Degree Days 18 (Base 50)    
Moisture  
Dew Point 62 °F    
Average Humidity 82    
Maximum Humidity 94    
Minimum Humidity 58    
Precipitation  
Precipitation 0.20 in 0.13 in - ()
Sea Level Pressure  
Sea Level Pressure 30.16 in    
Wind  
Wind Speed 7 mph ()    
Max Wind Speed 13 mph    
Max Gust Speed -    
Visibility 7.1 miles    
Events Rain    
Averages and records for this station are not official NWS values.
T = Trace of Precipitation, MM = Missing Value Source: Averaged Metar Reports

Daily Weather History Graph

Daily Weather History Graph

Search for Another Location

Airport or City:

Trip Planner

Search our weather history database for the weather conditions in past years. The results will help you decide how hot, cold, wet, or windy it might be!

Date:

Astronomy

Apr. 08, 2013 Rise Set
Actual Time 6:00 AM AEST 5:37 PM AEST
Civil Twilight 5:37 AM AEST 6:01 PM AEST
Nautical Twilight 5:10 AM AEST 6:28 PM AEST
Astronomical Twilight 4:42 AM AEST 6:55 PM AEST
Moon 3:42 AM AEST (4/8) 4:04 PM AEST (4/8)
Length of Visible Light 12h 24m
Length of Day
11h 37m
Waning Crescent, 6% of the Moon is Illuminated
Apr 8
Waning Crescent
Apr 10
New
Apr 18
First Quarter
Apr 26
Full
May 2
Last Quarter

Hourly Weather History & Observations

Time (AEST) Temp. Dew Point Humidity Pressure Visibility Wind Dir Wind Speed Gust Speed Precip Events Conditions
12:00 AM 64 °F 62 °F 91% 30.17 in 16 mi South 5.8 mph - -   Scattered Clouds
12:00 AM 64.4 °F 62.6 °F 94% 30.15 in 6.2 mi South 5.8 mph - N/A   Partly Cloudy
12:30 AM 64.4 °F 60.8 °F 88% 30.15 in 6.2 mi South 6.9 mph - N/A   Partly Cloudy
1:00 AM 65 °F 61 °F 83% 30.16 in - South 8.1 mph - -  
1:00 AM 64.4 °F 60.8 °F 88% 30.15 in 6.2 mi South 8.1 mph - N/A   Scattered Clouds
1:30 AM 64.4 °F 60.8 °F 88% 30.15 in 6.2 mi South 8.1 mph - N/A   Scattered Clouds
2:00 AM 64.4 °F 60.8 °F 88% 30.15 in 6.2 mi South 8.1 mph - N/A   Partly Cloudy
2:30 AM 62.6 °F 60.8 °F 94% 30.12 in 6.2 mi SSW 8.1 mph - N/A   Scattered Clouds
3:00 AM 62 °F 60 °F 93% 30.14 in 16 mi SSW 8.1 mph - -   Mostly Cloudy
3:00 AM 62.6 °F 60.8 °F 94% 30.12 in 6.2 mi SSW 8.1 mph - N/A   Mostly Cloudy
3:30 AM 62.6 °F 60.8 °F 94% 30.12 in 6.2 mi SSW 8.1 mph - N/A   Scattered Clouds
4:00 AM 62 °F 59 °F 87% 30.13 in - SSW 9.2 mph - -  
4:00 AM 60.8 °F 59.0 °F 94% 30.12 in 6.2 mi SSW 9.2 mph - N/A   Partly Cloudy
4:30 AM 60.8 °F 59.0 °F 94% 30.12 in 6.2 mi SSW 9.2 mph - N/A   Partly Cloudy
5:00 AM 62.6 °F 59.0 °F 88% 30.12 in 6.2 mi SSW 6.9 mph - N/A   Scattered Clouds
5:30 AM 62.6 °F 59.0 °F 88% 30.12 in 6.2 mi SSW 6.9 mph - N/A   Partly Cloudy
6:00 AM 62 °F 59 °F 87% 30.15 in 16 mi SSW 8.1 mph - -   Partly Cloudy
6:00 AM 62.6 °F 59.0 °F 88% 30.12 in 6.2 mi SSW 8.1 mph - N/A   Scattered Clouds
6:30 AM 62.6 °F 60.8 °F 94% 30.15 in 6.2 mi SSW 5.8 mph - N/A   Mostly Cloudy
7:00 AM 64 °F 61 °F 87% 30.17 in - SSW 6.9 mph - -  
7:00 AM 64.4 °F 60.8 °F 88% 30.15 in 6.2 mi SSW 6.9 mph - N/A   Mostly Cloudy
7:30 AM 64.4 °F 62.6 °F 94% 30.15 in 6.2 mi SSW 9.2 mph - N/A Rain Light Rain Showers
8:00 AM 66.2 °F 62.6 °F 88% 30.18 in 6.2 mi SSW 8.1 mph - N/A   Scattered Clouds
8:30 AM 69.8 °F 64.4 °F 83% 30.18 in 6.2 mi SSE 10.4 mph - N/A   Mostly Cloudy
9:00 AM 69 °F 62 °F 73% 30.20 in 16 mi South 6.9 mph - -   Mostly Cloudy
9:00 AM 69.8 °F 62.6 °F 78% 30.18 in 6.2 mi South 6.9 mph - N/A   Mostly Cloudy
9:30 AM 71.6 °F 62.6 °F 73% 30.18 in 6.2 mi South 9.2 mph - N/A   Scattered Clouds
10:00 AM 74 °F 62 °F 58% 30.19 in - SE 8.1 mph - -  
10:00 AM 73.4 °F 62.6 °F 69% 30.18 in 6.2 mi SE 8.1 mph - N/A   Mostly Cloudy
10:23 AM 68.0 °F 66.2 °F 94% 30.18 in 6.2 mi ESE 10.4 mph - N/A Rain Rain Showers
10:30 AM 68.0 °F 66.2 °F 94% 30.18 in 6.2 mi SE 8.1 mph - N/A Rain Light Rain Showers
11:00 AM 68.0 °F 64.4 °F 88% 30.18 in 6.2 mi SE 8.1 mph - N/A   Mostly Cloudy
11:30 AM 71.6 °F 66.2 °F 83% 30.15 in 6.2 mi SE 5.8 mph - N/A   Mostly Cloudy
12:00 PM 72 °F 63 °F 66% 30.17 in 7 mi SE 5.8 mph - -   Partly Cloudy
12:00 PM 71.6 °F 62.6 °F 73% 30.15 in 6.2 mi SE 5.8 mph - N/A   Mostly Cloudy
12:30 PM 71.6 °F 62.6 °F 73% 30.15 in 3.1 mi ESE 12.7 mph - N/A Rain Light Rain Showers
1:00 PM 70 °F 63 °F 72% 30.16 in - SE 8.1 mph - -  
1:00 PM 69.8 °F 62.6 °F 78% 30.15 in 6.2 mi SE 8.1 mph - N/A   Mostly Cloudy
1:30 PM 71.6 °F 62.6 °F 73% 30.15 in 6.2 mi ESE 8.1 mph - N/A   Mostly Cloudy
2:00 PM 73.4 °F 64.4 °F 73% 30.12 in 6.2 mi East 8.1 mph - N/A   Mostly Cloudy
2:30 PM 73.4 °F 62.6 °F 69% 30.12 in 6.2 mi SE 8.1 mph - N/A   Mostly Cloudy
3:00 PM 74 °F 64 °F 63% 30.14 in 16 mi ESE 9.2 mph - -   Partly Cloudy
3:00 PM 75.2 °F 64.4 °F 69% 30.12 in 6.2 mi ESE 9.2 mph - N/A   Mostly Cloudy
3:30 PM 73.4 °F 62.6 °F 69% 30.12 in 6.2 mi East 6.9 mph - N/A   Mostly Cloudy
4:00 PM 74 °F 63 °F 61% 30.15 in - East 6.9 mph - -  
4:00 PM 73.4 °F 62.6 °F 69% 30.12 in 6.2 mi East 6.9 mph - N/A   Scattered Clouds
4:30 PM 73.4 °F 62.6 °F 69% 30.12 in 6.2 mi East 6.9 mph - N/A   Scattered Clouds
5:00 PM 71.6 °F 62.6 °F 73% 30.15 in 6.2 mi ESE 6.9 mph - N/A   Partly Cloudy
5:30 PM 71.6 °F 62.6 °F 73% 30.15 in 6.2 mi SE 6.9 mph - N/A   Scattered Clouds
6:00 PM 69 °F 62 °F 74% 30.18 in 6 mi East 10.4 mph - -   Mostly Cloudy
6:00 PM 69.8 °F 62.6 °F 78% 30.15 in 5.6 mi East 10.4 mph - N/A   Mostly Cloudy
6:30 PM 69.8 °F 64.4 °F 83% 30.18 in 5.6 mi East 8.1 mph - N/A   Scattered Clouds
7:00 PM 69 °F 63 °F 74% 30.20 in - East 6.9 mph - -  
7:00 PM 69.8 °F 62.6 °F 78% 30.18 in 5.6 mi East 6.9 mph - N/A   Scattered Clouds
7:30 PM 69.8 °F 64.4 °F 83% 30.18 in 5.6 mi East 6.9 mph - N/A Rain Light Rain Showers
8:00 PM 68.0 °F 62.6 °F 83% 30.21 in 5.0 mi East 10.4 mph - N/A Rain Light Rain Showers
8:30 PM 68.0 °F 64.4 °F 88% 30.21 in 5.0 mi East 3.5 mph - N/A Rain Light Rain Showers
9:00 PM 67 °F 63 °F 84% 30.23 in 16 mi South 5.8 mph - - Rain Light Rain Showers
9:00 PM 68.0 °F 62.6 °F 83% 30.21 in 5.6 mi South 5.8 mph - N/A Rain Light Rain Showers
9:30 PM 66.2 °F 62.6 °F 88% 30.21 in 5.6 mi South 5.8 mph - N/A   Mostly Cloudy
10:00 PM 66 °F 63 °F 87% 30.23 in - South 6.9 mph - -  
10:00 PM 66.2 °F 62.6 °F 88% 30.21 in 6.2 mi South 6.9 mph - N/A   Mostly Cloudy
10:30 PM 66.2 °F 62.6 °F 88% 30.21 in 6.2 mi South 6.9 mph - N/A   Mostly Cloudy
11:00 PM 66.2 °F 62.6 °F 88% 30.21 in 6.2 mi South 5.8 mph - N/A   Mostly Cloudy
11:30 PM 66.2 °F 62.6 °F 88% 30.18 in 6.2 mi SSW 6.9 mph - N/A   Mostly Cloudy